Find ScatSat

NORAD ID: 41790 Int'l Des: 2016-059 Owner: ISRO Country: IN operational
LEOCIRCULARRETROGRADESSO

リアルタイム位置

3D地球を読み込み中...

ScatSatについて

説明を読み込み中...

次回通過

Passes for default location (London). Set your location on the main map for personalized predictions.

高度履歴

Loading altitude history...

軌道要素

1 41790U 16059H 26119.72089227 .00001438 00000-0 19528-3 0 9992
2 41790 98.1219 182.9838 0055599 45.4709 315.1024 14.79419864 94422
Epoch: Apr 29, 2026 • Age: 10 hours

現在のステータス

高度 597.2 km
速度 7.58 km/s
衛星直下点 28.35°N, 86.6°W
打ち上げ日 Sep 26, 2016
運用期間 9.5 years
タイプ other

技術仕様

分類 Payload
質量 370.00 kg
乾燥質量 350.00 kg
総質量 370.00 kg
長さ 2.70 m
直径 1.00 m
スパン 4.00 m
形状 Box + 2 pan
製造者 ISAC
バスタイプ SSB-2
フェーズステータス In Orbit
所有者/国 ISRO/IN

Most Searched